Lapse_Rate
5.5 5.2 5.0 4.6 5.3 5.4 5.5 5.4 5.4 5.4 5.6 5.6 5.5 5.4 5.3 5.4 5.5 5.5 5.4 5.3 5.3 5.1 4.7 4.4 4.2 4.1 4.0 4.0 4.0 4.0 4.0 4.2
5.7 5.5 5.3 5.5 5.6 5.6 5.5 5.7 5.5 5.4 5.5 5.5 5.3 5.2 5.3 5.4 5.3 5.4 5.4 5.2 4.9 4.5 4.3 4.1 3.9 3.8 3.9 4.0 4.2 4.4 4.5 4.3
5.7 5.8 6.0 5.8 5.8 5.8 5.7 5.7 5.6 5.5 5.4 5.5 5.5 5.5 5.6 5.6 5.5 5.2 5.2 5.0 4.8 4.5 4.2 3.9 3.9 4.1 4.2 4.2 4.3 4.4 4.4 4.4
5.6 6.3 6.1 6.0 6.2 6.0 5.9 5.8 5.8 5.7 5.5 5.5 5.5 5.5 5.4 5.2 5.1 5.2 4.9 4.8 4.5 4.2 4.0 4.0 4.2 4.3 4.4 4.4 4.3 4.4 4.8 5.0
5.7 6.3 6.3 6.3 6.4 6.2 6.1 5.9 5.8 5.6 5.6 5.6 5.6 5.6 5.4 5.2 5.2 5.0 4.9 4.5 4.2 4.1 4.2 4.3 4.4 4.4 4.3 4.6 4.8 4.9 5.0 5.3
5.9 6.5 6.5 6.7 6.6 6.4 6.2 6.0 5.8 5.6 5.7 5.7 5.6 5.4 5.3 5.3 5.2 5.0 4.7 4.3 4.2 4.3 4.5 4.6 4.5 4.6 4.8 5.0 4.9 4.8 4.9 4.9
6.0 6.8 6.9 6.8 6.7 6.5 6.2 5.9 5.8 5.8 5.7 5.7 5.5 5.4 5.4 5.4 5.2 4.9 4.7 4.6 4.6 4.6 4.7 4.9 5.0 5.1 4.9 4.9 5.0 5.0 5.1 5.1
6.8 7.1 7.0 6.9 6.7 6.4 6.0 5.9 5.8 5.8 5.7 5.5 5.5 5.4 5.5 5.2 5.1 4.9 4.8 4.8 4.7 4.9 5.2 5.2 5.0 4.9 5.1 5.2 5.2 5.1 4.9 4.9
7.2 7.2 7.1 6.8 6.6 6.3 6.0 5.8 5.8 5.7 5.6 5.5 5.5 5.6 5.4 5.2 5.1 5.0 4.9 4.7 5.0 5.2 5.1 4.9 4.8 5.0 5.0 4.7 4.6 4.5 4.4 4.4
7.4 7.2 6.9 6.7 6.5 6.2 5.9 5.7 5.8 5.7 5.7 5.7 5.8 5.6 5.4 5.3 5.1 5.1 4.9 5.1 5.2 5.1 4.9 4.9 4.9 4.7 4.5 4.6 4.6 4.6 4.4 4.2
7.3 7.0 6.8 6.6 6.4 6.0 5.8 5.9 5.8 5.8 5.8 6.0 5.7 5.6 5.4 5.3 5.3 5.1 5.2 5.2 5.1 4.9 5.0 4.8 4.8 4.8 4.8 5.0 4.9 4.9 4.6 4.6
7.0 6.9 6.7 6.5 6.0 5.8 5.9 5.9 5.9 6.0 6.1 5.9 5.8 5.6 5.5 5.4 5.2 5.3 5.2 5.1 5.0 4.8 4.8 5.1 4.9 5.2 4.8 4.7 4.9 5.6 5.3 5.6
7.1 6.8 6.5 6.1 5.9 5.8 5.8 5.9 6.1 6.2 6.1 5.9 5.7 5.7 5.6 5.4 5.4 5.3 5.1 5.1 4.7 4.8 5.0 5.0 5.2 5.0 5.1 5.3 5.5 5.7 6.7 6.5
6.9 6.6 6.2 5.9 5.9 5.8 6.0 6.2 6.3 6.3 6.1 5.9 5.8 5.7 5.5 5.6 5.5 5.3 5.1 5.0 4.7 5.1 5.0 5.0 4.9 5.1 5.7 6.0 6.4 7.0 7.2 7.0
6.6 6.3 6.0 6.0 5.9 6.0 6.1 6.4 6.4 6.2 6.0 6.0 5.8 5.7 5.7 5.6 5.4 5.2 5.3 5.0 5.0 5.0 5.1 4.9 4.9 5.2 5.5 6.4 6.8 6.9 6.9 6.5
6.4 6.1 6.2 6.0 5.9 5.9 6.1 6.6 6.4 6.2 6.1 6.0 5.9 5.6 5.7 5.6 5.3 5.4 5.2 5.1 4.7 4.9 5.2 4.9 4.9 5.0 6.1 6.4 6.4 6.5 6.4 6.5
6.2 6.2 6.1 5.8 5.9 5.9 6.3 6.6 6.4 6.2 6.1 6.1 5.8 5.7 5.7 5.6 5.2 5.2 5.2 5.2 5.1 5.4 5.5 4.8 5.1 5.5 6.2 6.2 6.3 6.6 6.2 5.6
6.2 6.3 5.9 6.0 6.0 6.0 6.3 6.5 6.3 6.2 6.1 6.0 5.9 5.8 5.7 5.5 5.2 5.3 5.2 5.0 5.4 5.5 5.1 5.0 5.1 6.3 6.7 6.2 6.0 6.3 7.0 5.8
6.3 6.1 6.0 6.0 6.0 6.0 6.3 6.5 6.3 6.2 6.1 6.1 6.0 5.8 5.9 5.5 5.3 5.4 5.1 4.8 5.1 5.2 5.5 5.5 5.4 6.0 6.6 6.1 6.1 6.0 6.4 6.1
Wind_Speed
15 13 11 10 11 8 6 4 1 3 6 6 6 6 7 7 8 8 11 13 14 14 15 13 14 9 8 9 11 10 10 9
13 11 11 10 10 8 6 4 1 4 5 6 6 7 7 6 10 10 12 12 14 15 13 13 13 10 10 11 9 12 10 10
15 13 12 10 10 7 5 3 1 5 6 5 5 7 7 6 8 12 11 13 14 14 12 11 12 10 11 10 9 9 10 9
14 14 12 11 9 7 5 3 4 5 7 5 6 7 6 6 9 8 10 14 14 14 14 12 12 10 8 9 9 11 10 10
15 14 13 11 9 7 5 3 5 6 7 8 9 7 9 7 9 9 11 14 14 14 14 14 12 8 10 9 8 9 9 11
15 14 12 10 9 7 5 3 5 6 6 7 7 9 8 9 9 13 12 11 14 15 14 16 13 10 10 11 11 11 9 9
15 13 12 11 8 7 5 3 5 6 6 7 9 10 11 10 11 10 10 10 10 14 16 15 15 12 10 9 12 14 11 11
15 13 12 10 9 6 3 4 6 6 7 8 9 10 12 12 12 11 14 11 11 12 15 14 13 11 13 12 12 13 12 10
13 13 10 10 8 6 4 6 6 7 8 8 9 10 8 9 11 11 10 11 11 15 15 14 16 13 13 12 10 10 11 9
14 12 10 10 8 6 6 6 7 7 8 8 9 9 11 11 13 12 11 12 12 15 15 16 15 15 14 15 9 9 8 8
13 11 11 10 8 7 7 6 6 7 8 8 9 10 11 12 12 14 14 14 15 16 17 17 16 14 15 14 8 8 9 9
12 12 11 10 8 8 6 6 7 8 8 9 10 11 12 12 12 13 14 15 16 16 17 16 16 16 13 10 11 11 12 10
13 12 11 9 8 7 7 6 6 6 7 9 10 11 12 13 13 15 15 16 16 16 17 16 16 15 14 12 12 10 12 11
13 12 10 8 8 6 6 6 6 6 7 9 11 12 12 14 14 15 15 16 16 17 15 15 15 14 16 16 13 13 12 10
12 11 9 9 7 6 6 6 6 7 8 10 11 12 13 13 14 15 15 15 16 17 16 15 17 15 16 16 15 13 12 11
12 11 9 8 7 6 6 6 6 7 9 10 11 11 12 13 14 15 15 16 15 16 16 15 15 13 14 19 14 12 12 12
12 11 10 9 7 7 6 7 7 7 8 10 11 12 12 13 14 15 16 15 15 15 16 16 18 13 31 25 17 11 13 12
13 11 10 8 8 6 7 7 6 7 8 10 11 12 13 14 14 16 16 15 16 14 16 17 20 19 33 27 21 11 12 16
12 11 10 10 9 8 7 7 7 7 9 10 11 12 13 14 15 16 15 14 14 13 16 19 18 18 32 26 22 14 15 19
Wind_Direction
174 173 173 168 138 155 154 176 102 305 281 316 317 295 310 317 315 325 320 318 321 314 308 313 310 308 310 313 318 307 304 297
164 171 157 157 139 159 165 156 93 326 339 338 338 333 329 324 328 316 314 314 315 312 312 316 312 310 319 308 297 305 302 305
156 163 160 166 154 164 155 134 50 357 352 338 335 322 316 309 301 325 307 320 313 308 314 309 311 310 313 307 305 302 298 294
160 165 166 167 164 154 168 105 37 25 355 347 345 317 325 333 334 318 333 313 314 309 308 307 306 313 306 304 293 284 289 288
164 170 166 169 146 164 124 77 32 32 14 353 344 339 338 333 324 329 318 323 317 316 313 310 309 301 301 297 293 286 286 280
163 169 158 157 148 148 110 93 47 27 10 359 346 351 338 332 330 327 323 325 327 321 320 321 308 308 304 311 304 291 277 274
151 139 155 142 160 118 129 71 54 26 7 6 358 346 333 332 337 327 336 325 326 327 333 317 314 312 321 309 293 287 280 272
127 156 155 154 129 133 116 44 44 27 12 7 358 345 329 331 339 335 329 331 329 330 326 322 317 318 319 303 297 286 279 268
153 146 146 141 133 120 75 45 36 25 18 2 354 348 342 336 341 335 328 330 326 325 328 323 320 327 320 316 300 295 282 272
140 141 140 132 121 96 67 43 41 28 13 0 355 351 348 343 340 337 337 331 327 335 329 327 333 334 332 320 302 291 298 291
137 139 130 122 108 95 73 56 42 27 11 2 359 353 350 346 340 342 340 334 335 335 336 337 340 335 320 309 302 303 295 285
138 129 127 119 108 93 82 55 39 23 11 3 359 357 352 347 346 346 344 339 341 340 342 343 350 330 334 327 329 320 311 297
132 132 125 124 108 93 75 61 38 21 13 5 5 0 353 352 352 348 347 345 346 346 352 357 340 342 338 339 327 322 318 324
135 129 129 114 99 86 78 54 39 24 14 10 11 2 357 356 354 348 350 350 350 354 359 340 10 345 346 346 341 340 341 335
136 131 122 109 101 92 78 59 38 22 18 16 14 3 360 359 354 353 354 354 358 2 6 5 9 349 353 350 346 343 347 348
141 132 123 117 107 94 77 63 47 27 21 18 13 5 5 0 358 360 359 2 4 9 8 7 14 358 357 350 348 351 9 352
138 133 126 118 113 92 81 63 46 31 25 21 14 8 8 4 5 5 6 4 10 14 12 4 15 7 1 356 360 6 18 19
141 133 126 120 106 108 87 72 52 38 29 26 17 12 11 10 9 13 8 7 13 8 8 12 30 11 8 2 2 17 23 33
140 131 124 114 114 99 99 82 64 42 35 30 23 15 13 14 14 14 12 8 11 15 10 26 33 15 14 9 12 24 28 29